Dauntless Aviation
Airports South America Argentina
SABE
AEP

Aeroparque Jorge Newbery

Buenos Aires, ARGENTINA

Airport Info
Suggest Updated Information for this Airport

Location

Latitude / Longitude: 34°33'33"S / 58°24'56"W
  34°33.552'S / 58°24.936'W
  -34.5592 / -58.4156

Nearby radio navigation aids

FDO SAN FERNANDO VOR/DME. 132.7° 10.6nm from FDO to field.
OP AEROPARQUE JORGE NEWBERY NDB. 131.1° 4.3nm from OP to field.

Runway Information

Runway 13 /31

Dimensions: 6890 x 131 ft.
Surface: ASP
 
Runway 13
Runway 31
Latitude: -34.553942 -34.563844
Longitude: -58.425247 -58.407506
Elevation: 18 ft. 18 ft.
Runway true heading: 126.3 306.3
 

Instrument Procedures

  Aerodrome Chart

STARs (Standard Terminal Arrivals)

  STAR Rwy 13/16 SARGO7C KOVUK7C TENIL7C BELGRANO7C
  STAR Rwy 13/16 PAGON7C SAN ANTONIO7C ASADA7C VALOS8C
  STAR Rwy 13/16 SURBO7A KUKEN1C PAPIX1C
  STAR Rwy 31 SURBO2B SARGO7D KOVUK7D TENIL7D BELGRANO7D VALOS7D ASADA7D
  STAR Rwy 31 PAGON7D SAN ANTONIO7D

IAPs (Instrument Approach Procedures)

  VOR (DME) ILS Rwy 13
  VOR (DMS) ILS (DME) Rwy 13
  LI ILS (DME) Rwy 13
  VOR (DME) LO LI Rwy 13
  LI LO LI Rwy 13
  LI Rwy 31
  LI Rwy 31

Departure Procedures

  SID Rwy 13/31 LANDA3B VIBAM38 ATOVO38
  SID Rwy 13/31 EZEIZA8
  SID Rwy 13/31 EL PALOMAR 8
  SID Rwy 13/31 KUKEN7 SURBO7 DORVO7 LA PLAYA7
Satellite photo at:
Airport distance calculator
From:
Weather Reports

METAR

SABE

SABE 240100Z 07007KT CAVOK 19/14 Q1016
SADF
10.6nm W
SADF 240100Z 02005KT CAVOK 18/10 Q1016
SAEZ
16.2nm S
SAEZ 240100Z 08006KT CAVOK 17/13 Q1015

TAF

SABE
TAF SABE 232300Z 2400/2424 09010KT 9999 SCT030 BKN060 TX21/2418Z TN15/2409Z PROB30 2402/2404 8000 -RA BKN020 OVC050 BECMG 2410/2412 05010KT BKN025 OVC045 BECMG 2416/2418 07010KT 9999
SADF
10.6nm W
TAF SADF 232300Z 2400/2424 05005KT 9999 SCT030 BKN060 TX21/2418Z TN13/2409Z PROB30 2402/2404 8000 -RA BKN020 OVC050 BECMG 2410/2412 05010KT BKN025 OVC045 BECMG 2416/2418 07010KT 9999
SAEZ
16.2nm S
TAF SAEZ 232300Z 2400/2424 07005KT 9999 SCT040 TX20/2418Z TN14/2410Z BECMG 2402/2405 SCT030 BKN050 PROB30 TEMPO 2403/2412 6000 RADZ BKN035 OVC040 BECMG 2413/2415 05010KT 9999 SCT035 BKN050 BECMG 2421/2424 07005KT 9999 SCT030
SUCA
32.8nm NE
TAF SUCA 232330Z 2400/2424 09010KT 9999 FEW020 BKN070 TX22/2418Z TN14/2410Z PROB30 TEMPO 2412/2418 8000 RA BKN015 BKN070
Safelog

 

Dauntless Aviation

© 2007-2017 Dauntless Aviation, all rights reserved
Information provided via PilotNav comes from a variety of official and unofficial data sources. As errors are possible, do not use PilotNav for primary flight planning purposes. Verify any information that you receive via PilotNav with current and canonical charts and other official documents. The material in this database is subject to database copyrights held by Dauntless Aviation and may not be copied without the express permission of Dauntless Aviation - licenses for use of part of all of this data are available for purchase; enquire via the Dauntless Aviation helpdesk. A number of mechanisms and markers exist in the database to protect against and identify infringement / copyright. Automated queries against this website are stictly prohibited, and all activity is logged and analyzed.